Погода в Дальней Игуменке

Россия / Белгородская область     50°41′21″N   36°44′23″E
темп.,
°C
ветер,
м/с
пор.,
м/с
влажн.,
%
обл.,
%
осадки,
мм/ч
давл.,
гПа
погр.,
м
12 мая, ср
ср1200:00+9в81674100 0.0 10201526
03:00+8в8158066 0.1 10201167
06:00+7всв6128677 0.0 1021725
09:00+10в81375100 0.0 10201207
12:00+9вюв61085100 1.1 1019946
15:00+11в5980100 2.2 1017677
18:00+9вюв3696100 5.6 1015423
21:00+8вюв4995100 9.0 1015218
13 мая, чт
чт1300:00+8вюв5129494 0.6 1015423
03:00+7юв4109856 0.8 1015291
06:00+7юв499944 0.0 1016268
09:00+12ююв5786100 0.1 1015771
12:00+13юв468038 0.2 1015768
15:00+16ююв466398 0.4 10141398
18:00+16ююв367296 0.1 1014898
21:00+11в3390100 0.1 101533
14 мая, пт
пт1400:00+11в3492100 0.0 101563
03:00+12в389393 0.0 1014148
06:00+12в399499 0.0 1014176
09:00+18юв61078100 0.0 1013559
12:00+22юв79642 0.0 10121305
15:00+23ююв71166100 0.0 10121462
18:00+21ююв41076100 0.0 1011594
21:00+17юв41189100 2.3 1010222
15 мая, сб
сб1500:00+16юв229268 7.3 100935
03:00+15юз229453 7.9 100913
06:00+14ююз238999 0.1 101051
09:00+19юз467516 0.1 1010431
12:00+21юз5661100 0.0 10121239
15:00+22ююз585541 0.0 10122124
18:00+18зюз3676100 0.3 1012118
21:00+16зюз117598 0.3 101211
16 мая, вс
вс1600:00+15сз118226 0.0 101311
03:00+13св11860 0.0 101410
06:00+13ссв228712 0.0 101441
09:00+18св3372100 0.0 1014351
12:00+22всв446070 0.0 10131106
15:00+24всв465692 0.0 10121491
18:00+22св487298 0.0 1011327
21:00+18всв4119095 0.3 1010218